Погода в Оксовском

Россия / Архангельская область     62°36′25″N   39°54′56″E
В апреле 2022 года жителям России запретили посещать сайт meteo.paraplan.net по решению Генеральной прокуратуры. Аудитория сайта уменьшилась в 10 раз. Владельцы сайта не видят смысла в поддержке погодного сервера в таких условиях. Сайт будет закрыт в октябре.
темп.,
°C
ветер,
м/с
пор.,
м/с
влажн.,
%
обл.,
%
осадки,
мм/ч
давл.,
гПа
погр.,
м
30 сентября, пт
пт3000:000юв3897100 0.1 1015426
03:00+1юв3897100 0.3 1014367
06:00+2юв3997100 0.0 1014427
09:00+3юв3997100 1.9 1013371
12:00+5юв3998100 0.7 1013428
15:00+6ююв3899100 1.1 1013313
18:00+7юв289999 0.4 1013296
21:00+7ю2899100 0.4 1012358
1 октября, сб
сб100:00+7ююв279899 0.0 1012194
03:00+6ююз3109852 0.1 1012417
06:00+5ююз3109955 0.0 1013320
09:00+7ююз379298 0.0 1014444
12:00+8юз3685100 0.0 1014757
15:00+7ююз2590100 0.1 1015307
18:00+6ю2593100 0.1 1014161
21:00+6ююв2594100 0.1 1014148
2 октября, вс
вс200:00+5ю119563 0.0 101314
03:00+6всв0091100 0.0 101211
06:00+6всв1188100 0.0 101124
09:00+7св2484100 0.0 1010185
12:00+9ссв3572100 0.0 1009698
15:00+9с3771100 0.0 1008975
18:00+6с378895 0.0 1008250
21:00+4ссз3897100 0.0 1009259
3 октября, пн
пн300:00+3ссз289867 0.0 1010251
03:00+1с26965 0.0 1012135
06:000ссв119670 0.0 101431
09:00+4св258138 0.0 1014237
12:00+7всв3661100 0.0 1014626
15:00+7всв4972100 0.0 1013695
18:00+6всв51378100 0.1 1012680
21:00+6всв61693100 2.6 1009722
4 октября, вт
вт400:00+7всв61594100 3.6 1006684
03:00+8в51595100 6.6 1005722
06:00+11вюв51495100 0.0 1004786
09:00+10ююв51281100 0.3 1006795
12:00+10ююв6128191 0.3 10071204
15:00+10ююв51182100 0.4 10081075
18:00+8ююв412825 0.2 1010796
21:00+8ююв51283100 0.2 10101249